BREEZE-KM DEB, 41720

Orbit data source: Space-Track

BREEZE-KM DEB, 41720 is space debris in LEO originally from a launch on Tue, 31 Mar 2015 UTC launched from the Plesetsk Missile And Space Complex (PKMTR). Debris objects in space refer to the collection of defunct objects orbiting the Earth. Examples of debris include non-operational satellites, rocket bodies, and fragments generated from explosions, collisions, or faulty payload assembly.

Loading next visibility...
Identifier
41720, 2015-020H
Orbit
LEO
Country
Flag of CISCIS
Related business
Manufacturer
Khrunichev
Mission
Spacecraft
Bus & Motor
Unknown
Mass
Unknown
Launch date (UTC)
2015-03-31 (11 years ago)
Launch vehicle
Unknown
Launch site
Plesetsk Missile And Space Complex (PKMTR)
Object type
Payload
Rocket body
Debris
Shape & HBR
Unknown shape, 0.1 m
Radar Cross Section
Medium (>0.1 m² and <1 m²)

Expand to show TLE details & history
Last TLE update: 5 days ago

TLE from 5 days ago
0 BREEZE-KM DEB
1 41720U 15020H   26187.59049390  .00000092  00000-0  27205-3 0  9995
2 41720  82.4888 140.5264 0229119 193.2947 166.2059 12.91004232521231
Epoch: 2026-07-06T14:10Z
TLE epoch observation values (Epoch: 2026-07-06T14:10:18.672Z)
Latitude
-0.0001°
Longitude
3.3753°
Altitude
1,471.355 km
Speed
7.048 km/s
True Right ascension
09h 22m 06s
True Declination
0° 00' 00"
Sunlit
Object was in daylight at epoch
Visualization orbit readout
Latitude
Unknown
Longitude
Unknown
Altitude
Unknown
Speed
Unknown
Apparent Right ascension
Unknown
Apparent Declination
Unknown
Sunlit
N/A
Visualization observer readout
Local Sidereal Time
03:08:59
Azimuth
Unknown
Elevation
Unknown
Doppler factor
Unknown
Orbital elements
Apogee altitude
1,470.624 km
Perigee altitude
1,119.02 km
Semi-major axis
7,672.959 km
Eccentricity
0.02291
Inclination
82.4888°
RAAN
140.5264°
Arg. of periapsis
193.2947°
True anomaly
166.81494°
Mean anomaly
166.2059°
Eccentric anomaly
166.51209°
Mean motion
3.22923 °/min
Orbital period
111.48 mins
BSTAR
0.00027205
Loading maneuver chart data...
Computing Atmospheric mass density...
Loading historical data...
Loading historical data...
Loading historical data...
Loading historical data...
Loading historical data...
Loading historical data...
Loading historical data...

Documentation

Showing up to 5 results
|